Weather in Sniatyn

Ukraine / Ivano-Frankovsk District     48°27′04″N   25°34′15″E
temp.,
°C
wind,
m/s
gust,
m/s
humid.,
%
clouds,
%
prec.,
mm/h
press.,
hPa
HPBL,
m
24 june, thu
thu2400:00+20wnw22896 2.4 101725
03:00+19wnw229212 3.9 101734
06:00+19wnw239350 0.3 101753
09:00+24nw118264 0.5 1017321
12:00+28ene11709 0.0 1017770
15:00+30ese22599 0.0 10161212
18:00+30se23635 0.0 10161130
21:00+23nne1177100 0.4 101511
25 june, fri
fri2500:00+21ssw118911 0.0 101511
03:00+20s2290100 0.0 101514
06:00+20se2289100 0.0 101421
09:00+24se347794 0.0 1014257
12:00+29se576598 0.0 1014744
15:00+30se56618 0.0 1012761
18:00+20wsw3787100 3.7 1014193
21:00+19nne229078 4.4 101441
26 june, sat
sat2600:00+18nw1189100 0.0 101513
03:00+17s118826 0.0 101411
06:00+16nw379510 0.0 1015166
09:00+20nw4585100 0.0 1016457
12:00+23nw4474100 0.0 1016972
15:00+24nnw337199 0.1 10151113
18:00+22nw3485100 0.2 1014139
21:00+20wnw368997 0.3 1014131
27 june, sun
sun2700:00+19nw369778 2.6 1015185
03:00+17wnw3599100 12.4 1016221
06:00+17wnw2598100 4.8 1016210
09:00+20nnw468753 5.2 1016590
12:00+22n447780 1.3 10161008
15:00+23nnw337575 5.6 1016993
18:00+23nnw237743 2.6 1016774
21:00+19nw22881 4.8 101628
28 june, mon
mon2800:00+17wnw359331 0.1 101786
03:00+16wnw369543 0.1 1017107
06:00+17wnw3694100 0.0 1018171
09:00+19nw35841 0.0 1018376
12:00+23nnw34650 0.1 10181253
15:00+25nnw345999 0.1 10171823
18:00+25nnw346411 0.0 10171682
21:00+20n228130 0.1 101711